Weather observations for the past three days for
Houston / Ellington
Imperial (Metric)
Date Time (cdt) Wind (mph) Vis. (mi.) Weather Sky Cond. Temperature (ºF) Relative Humidity Wind Chill (°F) Heat Index (°F) Pressure Precipitation (in)
Air Dwpt 6 hour altimeter (in) sea level (mb) 1 hr 3 hr 6 hr
Max. Min.
21 16:54 S 13 10.00 Partly Cloudy FEW021 SCT080 86 73.4 66% 93 29.97 0.0
21 15:54 S 9 10.00 Partly Cloudy FEW050 SCT080 86 71.6 62% 92 29.95 0.0
21 14:54 S 12 10.00 Thunderstorm in Vicinity SCT050 BKN090 86 71.6 62% 92 29.98 0.0
21 12:54 NW 8 10.00 Thunderstorm in Vicinity BKN041 91.4 73.4 56% 100 29.98 0.0
21 11:54 NW 7 G 13 10.00 Thunderstorm in Vicinity SCT055 BKN070 89.6 73.4 59% 98 29.98 0.0
21 10:54 W 7 10.00 Mostly Cloudy SCT031 BKN070 87.8 75.2 66% 98 30 0.0
21 09:54 W 6 10.00 Partly Cloudy SCT025 86 75.2 70% 95 30 0.0
21 07:54 SE 3 10.00 Fair CLR 78.8 75.2 89% 82 29.99 0.0
21 06:54 SE 3 10.00 Fair CLR 78.8 75.2 89% 82 29.99 0.0
21 05:54 Calm 10.00 Fair CLR 78.8 75.2 89% 82 29.98 0.0
21 04:54 Calm 10.00 Fair CLR 78.8 75.2 89% 82 29.98 0.0
21 03:54 Calm 10.00 Fair CLR 78.8 75.2 89% 82 29.98 0.0
21 02:54 S 5 10.00 A Few Clouds FEW046 78.8 75.2 89% 82 29.98 0.0
21 01:54 Calm 10.00 Fair CLR 80.6 75.2 84% 86 30 0.0
21 00:54 S 5 10.00 Mostly Cloudy BKN050 78.8 75.2 89% 82 30 0.0
20 23:54 S 6 10.00 Mostly Cloudy BKN052 80.6 75.2 84% 86 30.02 0.0
20 22:54 S 7 10.00 Partly Cloudy SCT056 80.6 75.2 84% 86 30.02 0.0
20 21:54 S 5 10.00 Partly Cloudy SCT050 80.6 75.2 84% 86 29.99 0.0
20 20:54 SE 5 10.00 A Few Clouds FEW055 82.4 75.2 79% 89 29.97 0.0
20 17:54 SE 8 10.00 Mostly Cloudy FEW045 BKN085 87.8 69.8 55% 93 29.97 0.0
20 16:54 SE 8 10.00 Mostly Cloudy FEW065 BKN085 86 73.4 66% 93 29.98 0.0
20 15:54 SE 14 10.00 Partly Cloudy SCT050 SCT075 89.6 75.2 63% 100 29.99 0.0
20 14:54 NE 8 10.00 Partly Cloudy SCT065 91.4 71.6 52% 99 29.99 0.0
20 13:54 NE 6 10.00 Partly Cloudy SCT038 SCT055 91.4 68 46% 96 30.01 0.0
20 12:54 NE 5 10.00 Partly Cloudy SCT040 89.6 69.8 52% 95 30.02 0.0
20 11:54 N 3 10.00 A Few Clouds FEW070 87.8 73.4 62% 96 30.02 0.0
20 10:54 N 5 10.00 A Few Clouds FEW070 102.2 73.4 40% 114 30.03 0.0
20 09:54 Calm 10.00 Mostly Cloudy BKN060 78.8 73.4 84% 82 30.03 0.0
20 08:54 E 6 10.00 Mostly Cloudy BKN060 77 73.4 89% 78 30.04 0.0
20 07:54 N 3 10.00 Mostly Cloudy BKN070 77 73.4 89% 78 30.02 0.0
20 06:54 W 5 10.00 Mostly Cloudy BKN080 77 71.6 83% 78 30 0.0
20 05:54 W 7 10.00 Mostly Cloudy FEW020 BKN100 77 71.6 83% 78 29.98 0.0
20 04:54 S 10 10.00 Mostly Cloudy BKN080 75.2 73.4 94% 74 29.98 0.0
20 03:54 S 12 10.00 Thunderstorm in Vicinity BKN041 77 73.4 89% 78 29.99 0.0
20 01:54 SE 7 G 13 10.00 Mostly Cloudy BKN028 77 73.4 89% 78 29.99 0.0
20 00:54 SE 3 10.00 Partly Cloudy SCT038 78.8 75.2 89% 82 29.99 0.0
19 23:54 Calm 10.00 A Few Clouds FEW040 78.8 75.2 89% 82 30 0.0
19 22:54 S 7 10.00 A Few Clouds FEW050 80.6 75.2 84% 86 29.97 0.0
19 21:54 Calm 10.00 A Few Clouds FEW050 84.2 75.2 74% 92 29.96 0.0
19 20:54 S 5 10.00 Mostly Cloudy BKN040 82.4 77 84% 91 29.95 0.0
19 19:54 S 5 10.00 Mostly Cloudy BKN049 84.2 77 79% 94 29.93 0.0
19 18:54 NE 5 10.00 Mostly Cloudy BKN047 87.8 75.2 66% 98 29.93 0.0
19 17:54 N 6 10.00 Mostly Cloudy BKN047 87.8 73.4 62% 96 29.92 0.0
19 16:54 N 6 10.00 Mostly Cloudy BKN043 91.4 73.4 56% 100 29.93 0.0
19 15:54 W 6 10.00 Mostly Cloudy BKN045 91.4 71.6 52% 99 29.95 0.0
19 13:54 NW 8 10.00 Mostly Cloudy BKN028 87.8 73.4 62% 96 29.99 0.0
19 12:54 N 7 10.00 Mostly Cloudy BKN028 87.8 73.4 62% 96 30 0.0
19 11:54 NW 6 G 13 10.00 Mostly Cloudy BKN026 84.2 73.4 70% 91 30.01 0.0
19 10:54 W 13 10.00 Mostly Cloudy BKN026 84.2 73.4 70% 91 30.02 0.0
19 09:54 W 14 10.00 A Few Clouds FEW020 FEW060 82.4 71.6 70% 87 30.03 0.0
19 08:54 W 9 10.00 A Few Clouds FEW020 FEW060 82.4 75.2 79% 89 30.03 0.0
19 07:54 W 7 10.00 A Few Clouds FEW015 FEW060 80.6 75.2 84% 86 30.02 0.0
19 06:54 SW 9 10.00 A Few Clouds FEW015 78.8 75.2 89% 82 29.97 0.0
19 05:54 SW 7 10.00 A Few Clouds FEW055 78.8 75.2 89% 82 29.97 0.0
19 04:54 SW 6 10.00 A Few Clouds FEW035 78.8 75.2 89% 82 29.97 0.0
19 03:54 SW 6 10.00 A Few Clouds FEW035 78.8 73.4 84% 82 29.97 0.0
19 02:54 S 3 10.00 A Few Clouds FEW035 78.8 73.4 84% 82 29.98 0.0
19 01:54 Calm 10.00 A Few Clouds FEW035 78.8 73.4 84% 82 29.98 0.0
19 00:54 S 6 10.00 A Few Clouds FEW035 77 73.4 89% 78 29.99 0.0
18 23:54 S 6 10.00 A Few Clouds FEW035 78.8 73.4 84% 82 30 0.0
18 22:54 S 6 10.00 A Few Clouds FEW035 78.8 73.4 84% 82 30 0.0
18 21:54 SE 6 10.00 A Few Clouds FEW035 80.6 73.4 79% 85 29.98 0.0
18 19:54 E 5 10.00 A Few Clouds FEW035 86 69.8 59% 91 29.95 0.0
18 18:54 N 5 10.00 A Few Clouds FEW030 87.8 69.8 55% 93 29.94 0.0
18 17:54 N 6 10.00 Partly Cloudy SCT065 89.6 69.8 52% 95 29.95 0.0
Date Time (cdt) Wind (mph) Vis. (mi.) Weather Sky Cond. Air Dwpt Max. Min. Relative Humidity Wind Chill (°F) Heat Index (°F) altimeter (in) sea level (mb) 1 hr 3 hr 6 hr
6 hour
Temperature (ºF) Pressure Precipitation (in)